AAL250 KMYR-KFLL

Flight info

Callsign AAL250
Flight time 1h 29m
Altitude 38000
Route CHS CAKET Q97 PRMUS CUUDA3
Aircraft A320/M-VGDW/C

Departure

Time 2026-04-15 03:54
Airport Myrtle Beach International Airport (KMYR)

Arrival

Time 2026-04-15 05:23
Airport Fort Lauderdale Hollywood International Airport (KFLL)
Time Latitude Longitude Altitude Speed Heading
2026-04-15 03:32 33.68255 -78.92406 33 ft 0 kts 93°
2026-04-15 03:44 33.68256 -78.92416 32 ft 2 kts 93°
2026-04-15 03:44 33.68257 -78.92437 32 ft 2 kts 93°
2026-04-15 03:44 33.68258 -78.92458 32 ft 2 kts 93°
2026-04-15 03:44 33.68259 -78.92478 32 ft 2 kts 76°
2026-04-15 03:45 33.68250 -78.92494 29 ft 2 kts
2026-04-15 03:45 33.68236 -78.92491 32 ft 0 kts 339°
2026-04-15 03:49 33.68238 -78.92492 32 ft 1 kts 339°
2026-04-15 03:49 33.68260 -78.92512 32 ft 6 kts 319°
2026-04-15 03:50 33.68307 -78.92559 32 ft 11 kts 329°
2026-04-15 03:50 33.68384 -78.92585 32 ft 13 kts 348°
2026-04-15 03:50 33.68478 -78.92608 32 ft 15 kts 348°
2026-04-15 03:50 33.68586 -78.92635 32 ft 17 kts 348°
2026-04-15 03:51 33.68671 -78.92692 32 ft 14 kts 281°
2026-04-15 03:51 33.68675 -78.92805 31 ft 14 kts 323°
2026-04-15 03:51 33.68775 -78.92831 32 ft 17 kts 348°
2026-04-15 03:51 33.68897 -78.92861 32 ft 19 kts 348°
2026-04-15 03:52 33.69023 -78.92861 32 ft 16 kts 353°
2026-04-15 03:52 33.69141 -78.92887 32 ft 18 kts 348°
2026-04-15 03:52 33.69251 -78.92918 32 ft 11 kts 328°
2026-04-15 03:52 33.69262 -78.93011 32 ft 13 kts 258°
2026-04-15 03:53 33.69240 -78.93126 34 ft 15 kts 242°
2026-04-15 03:53 33.69151 -78.93125 34 ft 15 kts 169°
2026-04-15 03:53 33.68875 -78.93057 34 ft 74 kts 168°
2026-04-15 03:53 33.68156 -78.92878 31 ft 131 kts 168°
2026-04-15 03:54 33.67127 -78.92617 151 ft 162 kts 170°
2026-04-15 03:54 33.66036 -78.92338 840 ft 161 kts 174°
2026-04-15 03:54 33.64924 -78.92055 1452 ft 165 kts 173°
2026-04-15 03:55 33.62629 -78.92471 2233 ft 193 kts 225°
2026-04-15 03:55 33.61720 -78.93801 2558 ft 219 kts 231°
2026-04-15 03:55 33.60740 -78.95324 2968 ft 242 kts 233°
2026-04-15 03:55 33.59694 -78.96961 3673 ft 253 kts 235°
2026-04-15 03:56 33.58607 -78.98654 4502 ft 260 kts 236°
2026-04-15 03:56 33.57487 -79.00392 5294 ft 267 kts 234°
2026-04-15 03:56 33.56331 -79.02176 6102 ft 274 kts 234°
2026-04-15 03:56 33.55152 -79.03991 6922 ft 278 kts 234°
2026-04-15 03:57 33.53955 -79.05833 7725 ft 282 kts 234°
2026-04-15 03:57 33.53155 -79.07064 8262 ft 284 kts 233°
2026-04-15 03:57 33.51932 -79.08945 9058 ft 287 kts 233°
2026-04-15 03:57 33.50696 -79.10844 9888 ft 290 kts 234°
2026-04-15 03:58 33.49427 -79.12802 10307 ft 308 kts 233°
2026-04-15 03:58 33.48066 -79.14906 10483 ft 331 kts 233°
2026-04-15 03:58 33.46127 -79.17891 10959 ft 349 kts 234°
2026-04-15 03:58 33.45111 -79.19445 11384 ft 352 kts 234°
2026-04-15 03:59 33.43591 -79.21763 12052 ft 355 kts 233°
2026-04-15 03:59 33.42060 -79.24098 12746 ft 357 kts 233°
2026-04-15 03:59 33.40523 -79.26452 13414 ft 360 kts 233°
2026-04-15 03:59 33.38973 -79.28824 14075 ft 363 kts 233°
2026-04-15 04:00 33.37409 -79.31213 14643 ft 366 kts 234°
2026-04-15 04:00 33.35829 -79.33622 15180 ft 370 kts 234°
2026-04-15 04:00 33.34235 -79.36059 15714 ft 374 kts 234°
2026-04-15 04:00 33.32624 -79.38519 16239 ft 378 kts 234°
2026-04-15 04:01 33.30996 -79.41002 16769 ft 381 kts 234°
2026-04-15 04:01 33.29351 -79.43508 17299 ft 385 kts 234°
2026-04-15 04:01 33.27689 -79.46037 17844 ft 389 kts 234°
2026-04-15 04:01 33.26010 -79.48587 18397 ft 392 kts 234°
2026-04-15 04:02 33.24313 -79.51161 18891 ft 396 kts 234°
2026-04-15 04:02 33.22602 -79.53754 19390 ft 399 kts 234°
2026-04-15 04:02 33.20882 -79.56360 19922 ft 401 kts 234°
2026-04-15 04:02 33.19151 -79.58984 20465 ft 403 kts 234°
2026-04-15 04:03 33.17413 -79.61622 21018 ft 406 kts 234°
2026-04-15 04:03 33.15663 -79.64277 21537 ft 408 kts 234°
2026-04-15 04:03 33.13902 -79.66944 22053 ft 410 kts 234°
2026-04-15 04:03 33.12131 -79.69620 22537 ft 412 kts 234°
2026-04-15 04:04 33.10348 -79.72317 23025 ft 415 kts 234°
2026-04-15 04:04 33.08557 -79.75023 23505 ft 417 kts 234°
2026-04-15 04:04 33.06753 -79.77741 23939 ft 419 kts 234°
2026-04-15 04:04 33.04938 -79.80473 24321 ft 421 kts 234°
2026-04-15 04:05 33.03119 -79.83212 24707 ft 423 kts 234°
2026-04-15 04:05 33.01287 -79.85971 25085 ft 425 kts 234°
2026-04-15 04:05 32.99450 -79.88737 25456 ft 427 kts 234°
2026-04-15 04:05 32.97605 -79.91511 25827 ft 429 kts 234°
2026-04-15 04:06 32.95751 -79.94298 26193 ft 431 kts 234°
2026-04-15 04:06 32.93886 -79.97102 26550 ft 433 kts 235°
2026-04-15 04:06 32.92012 -79.99917 26906 ft 435 kts 234°
2026-04-15 04:06 32.89963 -80.02587 27268 ft 440 kts 226°
2026-04-15 04:07 32.87536 -80.04847 27616 ft 447 kts 216°
2026-04-15 04:07 32.84799 -80.06659 27954 ft 452 kts 211°
2026-04-15 04:07 32.81996 -80.08380 28296 ft 454 kts 211°
2026-04-15 04:07 32.79180 -80.10113 28630 ft 456 kts 211°
2026-04-15 04:08 32.76354 -80.11855 28946 ft 459 kts 211°
2026-04-15 04:08 32.73520 -80.13609 29285 ft 460 kts 211°
2026-04-15 04:08 32.70685 -80.15361 29753 ft 458 kts 211°
2026-04-15 04:08 32.67861 -80.17105 30243 ft 457 kts 211°
2026-04-15 04:09 32.65049 -80.18840 30688 ft 455 kts 211°
2026-04-15 04:09 32.62244 -80.20572 31099 ft 453 kts 211°
2026-04-15 04:09 32.59454 -80.22289 31500 ft 452 kts 211°
2026-04-15 04:09 32.56662 -80.24001 31895 ft 451 kts 211°
2026-04-15 04:10 32.53872 -80.25708 32304 ft 450 kts 211°
2026-04-15 04:10 32.51095 -80.27412 32708 ft 449 kts 212°
2026-04-15 04:10 32.48331 -80.29134 33108 ft 448 kts 212°
2026-04-15 04:10 32.45582 -80.30875 33466 ft 447 kts 212°
2026-04-15 04:11 32.42847 -80.32622 33932 ft 446 kts 212°
2026-04-15 04:11 32.40119 -80.34367 34333 ft 445 kts 212°
2026-04-15 04:11 32.37391 -80.36108 34676 ft 445 kts 212°
2026-04-15 04:11 32.34665 -80.37840 34997 ft 445 kts 212°
2026-04-15 04:12 32.31938 -80.39568 35306 ft 445 kts 212°
2026-04-15 04:12 32.29210 -80.41288 35605 ft 445 kts 212°
2026-04-15 04:12 32.26478 -80.43008 35898 ft 444 kts 212°
2026-04-15 04:12 32.23750 -80.44723 36173 ft 444 kts 212°
2026-04-15 04:13 32.21018 -80.46435 36449 ft 445 kts 212°
2026-04-15 04:13 32.18285 -80.48149 36714 ft 445 kts 212°
2026-04-15 04:13 32.15697 -80.50092 36978 ft 437 kts 226°
2026-04-15 04:13 32.13720 -80.52742 37210 ft 427 kts 243°
2026-04-15 04:14 32.12551 -80.55904 37430 ft 417 kts 260°
2026-04-15 04:14 32.12283 -80.59265 37659 ft 410 kts 278°
2026-04-15 04:14 32.12925 -80.62510 37865 ft 406 kts 295°
2026-04-15 04:14 32.14407 -80.65319 38107 ft 405 kts 313°
2026-04-15 04:15 32.16576 -80.67431 38218 ft 408 kts 329°
2026-04-15 04:15 32.19227 -80.68636 38240 ft 413 kts 347°
2026-04-15 04:15 32.22108 -80.68795 38238 ft 421 kts
2026-04-15 04:15 32.24950 -80.67870 38238 ft 431 kts 21°
2026-04-15 04:16 32.27590 -80.66143 38249 ft 436 kts 27°
2026-04-15 04:16 32.29958 -80.63853 38240 ft 446 kts 45°
2026-04-15 04:16 32.31697 -80.60777 38206 ft 457 kts 62°
2026-04-15 04:16 32.32635 -80.57170 38220 ft 465 kts 79°
2026-04-15 04:17 32.32677 -80.53328 38225 ft 471 kts 97°
2026-04-15 04:17 32.31804 -80.49596 38222 ft 474 kts 114°
2026-04-15 04:17 32.30085 -80.46285 38210 ft 473 kts 131°
2026-04-15 04:17 32.27667 -80.43680 38204 ft 470 kts 149°
2026-04-15 04:18 32.24763 -80.41997 38179 ft 463 kts 167°
2026-04-15 04:18 32.21623 -80.41363 38185 ft 455 kts 184°
2026-04-15 04:18 32.18522 -80.41813 38186 ft 445 kts 201°
2026-04-15 04:18 32.15731 -80.43262 38180 ft 436 kts 217°
2026-04-15 04:19 32.13443 -80.45532 38228 ft 430 kts 231°
2026-04-15 04:19 32.09242 -80.50667 38201 ft 438 kts 230°
2026-04-15 04:20 32.04995 -80.55847 38213 ft 440 kts 227°
2026-04-15 04:20 32.02543 -80.58045 38208 ft 447 kts 214°
2026-04-15 04:20 31.99795 -80.59785 38196 ft 450 kts 212°
2026-04-15 04:21 31.94243 -80.63239 38215 ft 451 kts 212°
2026-04-15 04:21 31.88690 -80.66697 38214 ft 452 kts 212°
2026-04-15 04:22 31.83126 -80.70167 38220 ft 452 kts 212°
2026-04-15 04:22 31.77563 -80.73635 38224 ft 453 kts 212°
2026-04-15 04:23 31.71997 -80.77110 38218 ft 453 kts 212°
2026-04-15 04:23 31.66419 -80.80575 38219 ft 454 kts 212°
2026-04-15 04:24 31.60836 -80.84037 38227 ft 454 kts 212°
2026-04-15 04:24 31.56109 -80.86965 38229 ft 454 kts 212°
2026-04-15 04:25 31.50517 -80.90424 38233 ft 455 kts 212°
2026-04-15 04:25 31.44919 -80.93880 38218 ft 455 kts 211°
2026-04-15 04:26 31.39318 -80.97340 38225 ft 455 kts 211°
2026-04-15 04:26 31.33712 -81.00797 38228 ft 456 kts 211°
2026-04-15 04:27 31.28076 -81.04204 38230 ft 458 kts 207°
2026-04-15 04:27 31.21892 -81.06120 38235 ft 466 kts 188°
2026-04-15 04:28 31.15397 -81.06318 38227 ft 468 kts 183°
2026-04-15 04:28 31.08882 -81.06442 38232 ft 468 kts 184°
2026-04-15 04:29 31.02364 -81.06582 38235 ft 469 kts 184°
2026-04-15 04:29 30.95845 -81.06718 38237 ft 469 kts 184°
2026-04-15 04:30 30.89321 -81.06851 38236 ft 469 kts 183°
2026-04-15 04:30 30.82795 -81.06987 38239 ft 469 kts 183°
2026-04-15 04:31 30.76271 -81.07124 38241 ft 469 kts 183°
2026-04-15 04:31 30.69741 -81.07260 38243 ft 469 kts 183°
2026-04-15 04:32 30.63218 -81.07391 38231 ft 469 kts 183°
2026-04-15 04:32 30.56692 -81.07650 38238 ft 469 kts 185°
2026-04-15 04:33 30.50183 -81.08096 38245 ft 469 kts 186°
2026-04-15 04:33 30.43670 -81.08555 38246 ft 469 kts 185°
2026-04-15 04:34 30.37158 -81.08963 38244 ft 469 kts 185°
2026-04-15 04:34 30.30638 -81.09338 38247 ft 469 kts 185°
2026-04-15 04:35 30.24122 -81.09717 38250 ft 469 kts 185°
2026-04-15 04:35 30.17601 -81.10100 38251 ft 469 kts 185°
2026-04-15 04:36 30.11087 -81.10487 38255 ft 469 kts 185°
2026-04-15 04:36 30.04569 -81.10877 38256 ft 469 kts 185°
2026-04-15 04:37 29.99106 -81.11209 38256 ft 469 kts 185°
2026-04-15 04:37 29.92592 -81.11602 38261 ft 469 kts 185°
2026-04-15 04:38 29.86078 -81.11981 38265 ft 469 kts 182°
2026-04-15 04:38 29.79609 -81.10983 38257 ft 472 kts 163°
2026-04-15 04:39 29.73523 -81.08168 38253 ft 472 kts 157°
2026-04-15 04:39 29.67484 -81.05208 38248 ft 472 kts 157°
2026-04-15 04:40 29.61434 -81.02251 38255 ft 472 kts 157°
2026-04-15 04:40 29.55389 -80.99295 38255 ft 472 kts 157°
2026-04-15 04:41 29.49339 -80.96339 38259 ft 472 kts 157°
2026-04-15 04:41 29.43290 -80.93392 38256 ft 472 kts 157°
2026-04-15 04:42 29.37244 -80.90443 38265 ft 472 kts 157°
2026-04-15 04:42 29.31201 -80.87494 38268 ft 472 kts 157°
2026-04-15 04:43 29.25163 -80.84561 38267 ft 471 kts 157°
2026-04-15 04:43 29.19119 -80.81638 38262 ft 471 kts 157°
2026-04-15 04:44 29.13087 -80.78719 38256 ft 471 kts 157°
2026-04-15 04:44 29.07054 -80.75799 38255 ft 471 kts 157°
2026-04-15 04:45 29.01023 -80.72884 38251 ft 471 kts 157°
2026-04-15 04:45 28.94985 -80.69983 38253 ft 471 kts 158°
2026-04-15 04:46 28.88902 -80.67235 38251 ft 470 kts 159°
2026-04-15 04:46 28.79734 -80.63218 38249 ft 470 kts 159°
2026-04-15 04:47 28.73642 -80.60506 38239 ft 470 kts 158°
2026-04-15 04:47 28.67555 -80.57774 38231 ft 470 kts 158°
2026-04-15 04:48 28.61465 -80.55055 38232 ft 470 kts 158°
2026-04-15 04:48 28.55375 -80.52345 38238 ft 470 kts 158°
2026-04-15 04:49 28.49285 -80.49647 38235 ft 469 kts 158°
2026-04-15 04:49 28.43203 -80.46954 38233 ft 469 kts 158°
2026-04-15 04:50 28.37115 -80.44263 38231 ft 469 kts 158°
2026-04-15 04:50 28.31043 -80.41573 38232 ft 469 kts 158°
2026-04-15 04:51 28.24967 -80.38886 38231 ft 469 kts 158°
2026-04-15 04:51 28.18892 -80.36203 38233 ft 468 kts 158°
2026-04-15 04:52 28.12818 -80.33527 38232 ft 468 kts 158°
2026-04-15 04:52 28.06729 -80.30888 38236 ft 469 kts 159°
2026-04-15 04:53 28.00570 -80.28465 38238 ft 469 kts 161°
2026-04-15 04:53 27.94380 -80.26133 38241 ft 469 kts 161°
2026-04-15 04:54 27.88199 -80.23764 38245 ft 469 kts 160°
2026-04-15 04:54 27.82030 -80.21346 38250 ft 469 kts 160°
2026-04-15 04:55 27.75858 -80.18921 38257 ft 469 kts 160°
2026-04-15 04:55 27.69697 -80.16525 38271 ft 468 kts 160°
2026-04-15 04:56 27.63534 -80.14139 38256 ft 468 kts 160°
2026-04-15 04:56 27.57392 -80.11707 38249 ft 468 kts 159°
2026-04-15 04:57 27.51253 -80.09148 38246 ft 468 kts 159°
2026-04-15 04:57 27.48211 -80.07867 37589 ft 466 kts 159°
2026-04-15 04:57 27.45143 -80.06581 35981 ft 476 kts 158°
2026-04-15 04:58 27.42014 -80.05281 34511 ft 482 kts 158°
2026-04-15 04:58 27.38843 -80.03980 32917 ft 486 kts 159°
2026-04-15 04:58 27.35624 -80.02778 31273 ft 490 kts 161°
2026-04-15 04:58 27.32335 -80.01706 29440 ft 494 kts 163°
2026-04-15 04:59 27.29014 -80.00739 27959 ft 490 kts 165°
2026-04-15 04:59 27.25766 -79.99843 27403 ft 467 kts 165°
2026-04-15 04:59 27.22699 -79.98938 26820 ft 448 kts 163°
2026-04-15 04:59 27.19746 -79.97952 26090 ft 439 kts 162°
2026-04-15 05:00 27.16863 -79.96903 25378 ft 433 kts 160°
2026-04-15 05:00 27.14028 -79.95827 24674 ft 428 kts 160°
2026-04-15 05:00 27.11226 -79.94756 24031 ft 422 kts 160°
2026-04-15 05:00 27.08449 -79.93710 23290 ft 419 kts 160°
2026-04-15 05:01 27.05696 -79.92685 22524 ft 416 kts 160°
2026-04-15 05:01 27.02978 -79.91626 21854 ft 410 kts 159°
2026-04-15 05:01 27.00314 -79.90548 21171 ft 405 kts 159°
2026-04-15 05:01 26.97677 -79.89464 20454 ft 402 kts 158°
2026-04-15 05:02 26.95063 -79.88383 19797 ft 397 kts 158°
2026-04-15 05:02 26.92500 -79.87331 19340 ft 387 kts 159°
2026-04-15 05:02 26.90006 -79.86318 18853 ft 378 kts 158°
2026-04-15 05:02 26.87546 -79.85327 18253 ft 373 kts 159°
2026-04-15 05:03 26.85112 -79.84348 17560 ft 370 kts 159°
2026-04-15 05:03 26.82708 -79.83383 17075 ft 366 kts 159°
2026-04-15 05:03 26.80329 -79.82428 16598 ft 362 kts 158°
2026-04-15 05:03 26.77955 -79.81474 16113 ft 362 kts 159°
2026-04-15 05:04 26.75585 -79.80524 15634 ft 362 kts 159°
2026-04-15 05:04 26.73214 -79.79585 15174 ft 361 kts 161°
2026-04-15 05:04 26.70751 -79.79062 14713 ft 361 kts 176°
2026-04-15 05:04 26.68251 -79.79201 14275 ft 360 kts 190°
2026-04-15 05:05 26.65869 -79.79981 14017 ft 352 kts 201°
2026-04-15 05:05 26.63602 -79.80922 13731 ft 344 kts 201°
2026-04-15 05:05 26.61361 -79.81834 13269 ft 342 kts 200°
2026-04-15 05:05 26.59132 -79.82731 12817 ft 339 kts 200°
2026-04-15 05:06 26.56929 -79.83618 12413 ft 335 kts 200°
2026-04-15 05:06 26.54743 -79.84513 11973 ft 333 kts 201°
2026-04-15 05:06 26.52630 -79.85459 11778 ft 323 kts 202°
2026-04-15 05:06 26.50582 -79.86426 11440 ft 318 kts 202°
2026-04-15 05:07 26.48555 -79.87403 11036 ft 317 kts 203°
2026-04-15 05:07 26.46544 -79.88373 10679 ft 313 kts 202°
2026-04-15 05:07 26.44555 -79.89326 10320 ft 310 kts 202°
2026-04-15 05:07 26.42579 -79.90265 9916 ft 308 kts 202°
2026-04-15 05:08 26.40612 -79.91191 9514 ft 305 kts 202°
2026-04-15 05:08 26.38663 -79.92106 9107 ft 303 kts 203°
2026-04-15 05:08 26.36812 -79.93222 8665 ft 303 kts 208°
2026-04-15 05:08 26.34994 -79.94392 8261 ft 301 kts 208°
2026-04-15 05:09 26.33192 -79.95556 7825 ft 298 kts 209°
2026-04-15 05:09 26.31401 -79.96713 7360 ft 297 kts 207°
2026-04-15 05:09 26.29627 -79.97856 7084 ft 291 kts 207°
2026-04-15 05:09 26.27875 -79.98976 6903 ft 290 kts 206°
2026-04-15 05:10 26.26126 -80.00097 6717 ft 290 kts 206°
2026-04-15 05:10 26.24379 -80.01217 6514 ft 288 kts 207°
2026-04-15 05:10 26.22650 -80.02325 6319 ft 286 kts 207°
2026-04-15 05:10 26.20932 -80.03429 6143 ft 285 kts 204°
2026-04-15 05:11 26.19288 -80.04656 5932 ft 286 kts 220°
2026-04-15 05:11 26.17978 -80.06327 5765 ft 289 kts 236°
2026-04-15 05:11 26.17115 -80.08332 5577 ft 289 kts 249°
2026-04-15 05:11 26.16479 -80.10463 5370 ft 290 kts 250°
2026-04-15 05:12 26.15838 -80.12589 5185 ft 288 kts 250°
2026-04-15 05:12 26.15242 -80.14672 4995 ft 277 kts 256°
2026-04-15 05:12 26.15016 -80.16753 4817 ft 266 kts 270°
2026-04-15 05:12 26.15034 -80.18768 4649 ft 254 kts 270°
2026-04-15 05:13 26.15042 -80.20689 4480 ft 245 kts 270°
2026-04-15 05:13 26.15047 -80.22596 4332 ft 247 kts 270°
2026-04-15 05:13 26.15050 -80.23882 4214 ft 245 kts 270°
2026-04-15 05:13 26.15062 -80.26404 3896 ft 249 kts 270°
2026-04-15 05:14 26.15077 -80.27715 3632 ft 251 kts 270°
2026-04-15 05:14 26.15098 -80.29604 3445 ft 245 kts 270°
2026-04-15 05:14 26.15119 -80.31491 3148 ft 243 kts 270°
2026-04-15 05:14 26.15139 -80.33383 3003 ft 241 kts 270°
2026-04-15 05:15 26.15159 -80.35257 3006 ft 243 kts 270°
2026-04-15 05:15 26.15179 -80.37143 3007 ft 244 kts 270°
2026-04-15 05:15 26.15201 -80.39035 3007 ft 244 kts 270°
2026-04-15 05:15 26.15222 -80.40918 3006 ft 243 kts 270°
2026-04-15 05:16 26.15101 -80.42781 3008 ft 238 kts 250°
2026-04-15 05:16 26.14254 -80.44273 3005 ft 225 kts 216°
2026-04-15 05:16 26.12880 -80.44962 3006 ft 214 kts 180°
2026-04-15 05:16 26.11474 -80.44660 3008 ft 202 kts 145°
2026-04-15 05:17 26.10457 -80.43645 3011 ft 198 kts 128°
2026-04-15 05:17 26.09599 -80.42505 2997 ft 188 kts 126°
2026-04-15 05:17 26.08782 -80.41376 2999 ft 186 kts 126°
2026-04-15 05:17 26.08060 -80.40203 3014 ft 179 kts 111°
2026-04-15 05:18 26.07798 -80.38940 3016 ft 160 kts 91°
2026-04-15 05:18 26.07792 -80.37762 2991 ft 145 kts 90°
2026-04-15 05:18 26.07789 -80.36623 2997 ft 150 kts 90°
2026-04-15 05:18 26.07784 -80.35461 2991 ft 150 kts 90°
2026-04-15 05:19 26.07779 -80.34284 3000 ft 159 kts 90°
2026-04-15 05:19 26.07774 -80.32999 2848 ft 170 kts 90°
2026-04-15 05:19 26.07768 -80.31699 2650 ft 165 kts 90°
2026-04-15 05:19 26.07763 -80.30458 2442 ft 156 kts 90°
2026-04-15 05:20 26.07758 -80.29289 2244 ft 147 kts 90°
2026-04-15 05:20 26.07753 -80.28196 2080 ft 136 kts 90°
2026-04-15 05:20 26.07748 -80.27156 1890 ft 134 kts 89°
2026-04-15 05:20 26.07743 -80.26129 1711 ft 132 kts 90°
2026-04-15 05:21 26.07738 -80.25109 1529 ft 132 kts 90°
2026-04-15 05:21 26.07733 -80.24093 1363 ft 131 kts 90°
2026-04-15 05:21 26.07728 -80.23075 1188 ft 131 kts 90°
2026-04-15 05:21 26.07723 -80.22059 1016 ft 131 kts 90°
2026-04-15 05:22 26.07718 -80.21046 851 ft 131 kts 89°
2026-04-15 05:22 26.07713 -80.20033 673 ft 132 kts 88°
2026-04-15 05:22 26.07707 -80.19005 493 ft 133 kts 89°
2026-04-15 05:22 26.07699 -80.17974 336 ft 130 kts 87°
2026-04-15 05:23 26.07698 -80.16969 164 ft 130 kts 87°
2026-04-15 05:23 26.07689 -80.15985 29 ft 117 kts 88°
2026-04-15 05:23 26.07686 -80.15247 17 ft 71 kts 91°
2026-04-15 05:23 26.07688 -80.14888 23 ft 23 kts 91°
2026-04-15 05:24 26.07669 -80.14714 24 ft 23 kts 99°
2026-04-15 05:24 26.07606 -80.14553 25 ft 13 kts 118°
2026-04-15 05:24 26.07556 -80.14518 26 ft 9 kts 175°
2026-04-15 05:24 26.07496 -80.14486 25 ft 12 kts 123°
2026-04-15 05:25 26.07479 -80.14382 24 ft 16 kts 103°
2026-04-15 05:25 26.07414 -80.14343 23 ft 8 kts 174°
2026-04-15 05:25 26.07398 -80.14344 24 ft 0 kts 180°